DELTA 1 DEB, 42656

Orbit data source: Space-Track

DELTA 1 DEB, 42656 is space debris in SSO originally from a launch on Thu, 12 Jun 1975 UTC launched from the Air Force Western Test Range (AFWTR). Debris objects in space refer to the collection of defunct objects orbiting the Earth. Examples of debris include non-operational satellites, rocket bodies, and fragments generated from explosions, collisions, or faulty payload assembly.

Loading next visibility...
Identifier
42656, 1975-052MR
Orbit
SSO
Country
Flag of USUS
Related business
Manufacturer
Unknown
Mission
Spacecraft
Bus & Motor
Unknown
Mass
Unknown
Launch date (UTC)
1975-06-12 (50 years ago)
Launch vehicle
Unknown
Launch site
Air Force Western Test Range (AFWTR)
Object type
Payload
Rocket body
Debris
Shape & HBR
Unknown shape, 0.1 m
Radar Cross Section
Small (<0.1 m²)

Expand to show TLE details & history
Last TLE update: 1 day ago

TLE from 1 day ago
0 DELTA 1 DEB
1 42656U 75052MR  25286.94330702  .00000218  00000-0  51354-3 0  9995
2 42656  99.6722 106.0939 0067487 152.3786 208.0951 13.34340867578961
Epoch: 2025-10-13T22:38Z
TLE epoch observation values (Epoch: 2025-10-13T22:38:21.726Z)
Latitude
0.00001°
Longitude
103.76454°
Altitude
1,177.985 km
Speed
7.243 km/s
True Right ascension
07h 04m 22s
True Declination
0° 00' 00"
Sunlit
Object was in daylight at epoch
Visualization orbit readout
Latitude
Unknown
Longitude
Unknown
Altitude
Unknown
Speed
Unknown
Apparent Right ascension
Unknown
Apparent Declination
Unknown
Sunlit
N/A
Visualization observer readout
Local Sidereal Time
04:37:54
Azimuth
Unknown
Elevation
Unknown
Doppler factor
Unknown
Orbital elements
Apogee altitude
1,178.41 km
Perigee altitude
1,077.1 km
Semi-major axis
7,505.892 km
Eccentricity
0.00675
Inclination
99.6722°
RAAN
106.0939°
Arg. of periapsis
152.3786°
True anomaly
207.7336°
Mean anomaly
208.0951°
Eccentric anomaly
207.91408°
Mean motion
3.33764 °/min
Orbital period
107.86 mins
BSTAR
0.00051354
Loading maneuver chart data...
Computing Atmospheric mass density...
Loading historical data...
Loading historical data...
Loading historical data...
Loading historical data...
Loading historical data...
Loading historical data...
Loading historical data...

Documentation

Showing up to 5 results
|